Voltar ao catálogo

TRYAD 1

AtivoCiênciaSSO
NORAD 66691·PAYLOAD·🇺🇸 United States
Este nome de satélite ainda não foi confirmado por fontes oficiais.

Lançado Nov 28, 2025 de Vandenberg Space Force Base

Loading…

Próximas Passagens (próximas 24 horas)

TLE

AtualizadoSource: Space-Track

Época: Sep 14, 2026, 10:50 UTC

1 66691U 25276AB  26257.45161335  .00006306  00000-0  27748-3 0  9996
2 66691  97.4126 329.8600 0005600  58.2850 301.8932 15.22199160 44006

Acompanhe TRYAD 1 em tempo real com AllMySat

Download on the App Store